Dewa Poker | Dominobet | Poker Boya | Bandar Blackjack | Bandar Ceme

Jackpot

Texas Poker Multi Jackpot System

Kini Telah hadir Jackpot SUPER ROYAL FLUSH

Kini Telah hadir Jackpot 2000 (khusus table VIP keatas).

Ikutilah global jackpot yang tersedia di system kami, dengan system jackpot terbaru dan pertama di indonesia, anda dapat membeli jackpot dengan harga 100 rupiah saja dan menangkan hadiahnya hingga puluhan juta rupiah.

Jackpot bukanlah suatu keharusan untuk dibeli, namun kami memberikan suatu fitur tambahan untuk member tercinta dari www.poker555.net.

Terdapat tiga pilihan harga jackpot yang bisa anda beli yaitu :100,500,1000 dan 2000(khusus table VIP Keatas) rupiah.

Hadiah dari Multi jackpot system www.poker555.net

  1. full house x 10 harga jackpot yang anda beli.
      (contoh:anda membeli 1000 maka:1000 X10 = 10.000)
  2. four of kind x 250 harga jackpot yang anda beli
      (contoh:anda membeli 1000 maka:1000 X250 = 250.000)
  3. Straight flush x 1200
      (contoh:anda membeli 1000 maka:1000 X1200 = 1.200.000)
  4. Royal flush x 10000 harga jackpot yang anda beli
      (contoh:anda membeli 1000 maka:1000 X10000 = 10.000.000)
  5. SUPER ROYAL FLUSH x 30000 harga jackpot yang anda beli
      (contoh:anda membeli 1000 maka:1000 X30000 = 30.000.000)

Kondisi kartu

  1. full house adalah kondisi kartu dimana kartu anda dan kartu tengah dengan total 7 kartu bisa mendapatkan nilai 5 kartu dengan kombinasi 1 tris(three of kind) dan 1 pair, contoh 3 kartu 10 dan 2 kartu 5
  2. Four of kind adalah kondisi kartu dimana kartu anda dan kartu tengah dengan total 7 kartu bisa mendapatkan nilai 5 kartu dengan kombinasi 4 kartu yang sama jumlah dan 1 kartu apapun juga contoh anda mendapatkan 4 buah kartu angka 3 dan 1 kartu apapun.
  3. Staright flush adalah kondisi kartu dimana kartu anda dan kartu tengah dengan total 7 kartu bisa mendapatkan nilai 5 kartu dengan kombinasi seri / staright dengan kembang yang sama contoh : urutan kartu dari angka 5, 6, 7, 8 , 9 10 dengan kembang yg sama misalnya as hati
  4. Royal flush adalah kondisi kartu dimana kartu anda dan kartu tengah dengan total 7 kartu bisa mendapatkan nilai 5 kartu dengan kombinasi seri / staright dengan kembang yang sama tetapi kartu tersebut haruslah dimulai dari 10. contoh 10, Queen, Jack, King dan aces dengan kembang yang sama
  5. Super Royal flush adalah kondisi kartu dimana Kedua kartu anda digabung dengan 3 kartu pertama meja haruslah royal flush. contoh kartu anda 10,Queen kembang sama dan 3 kartu pertama meja adalah Jack, King dan aces dengan kembang yang sama

Demikian adalah penjelasan dari Multi Jackpot www.poker555.net terima kasih dan selamat bermain salam hoki dari kami

Texas Poker Jackpot Winner

TOP SUPER ROYAL FLUSH
No.TanggalNamaPriceWin
119/11 18:51BU8SU4WDM9Super Royal flush3,000,000
219/11 16:32D4M4N13Super Royal flush3,000,000
319/11 08:54BOU74NGK1Super Royal flush6,000,000
419/11 01:28S4M5UNGSuper Royal flush6,000,000
518/11 23:09FFA0D8A2Super Royal flush6,000,000
TOP ROYAL FLUSH
No.TanggalNamaPriceWin
119/11 21:15PASTI997Royal flush5,000,000
219/11 21:07LOV888Royal flush10,000,000
319/11 21:05BRIVLYRoyal flush10,000,000
419/11 21:04ROMAN1982Royal flush2,000,000
519/11 21:04ONGIS1234Royal flush1,000,000
TOP STRAIGHT FLUSH
No.TanggalNamaPriceWin
119/11 21:18USEPBELUTStraight Flush1,200,000
219/11 21:16Q5D74ULYBJStraight Flush240,000
319/11 21:14BAYHUStraight Flush120,000
419/11 21:14HSMFREEStraight Flush240,000
519/11 21:13KUYOX21Straight Flush120,000
LATEST JACKPOT
No.TanggalNamaPriceWin
119/11 21:18M0V15T4RFull House2,000
219/11 21:18KALANG29Full House1,000
319/11 21:18GR0W01Full House2,000
419/11 21:18USEPBELUTStraight Flush1,200,000
519/11 21:18DEDEWI151Full House5,000
619/11 21:18AADRALAD89Full House5,000
719/11 21:18V1SUMFull House2,000
819/11 21:18TEMPIK666Full House5,000
919/11 21:18RASTAGEJULFull House1,000
1019/11 21:17MOCCAYFull House1,000
1119/11 21:17BERSYUKUR3Full House2,000
1219/11 21:17EGIP196Full House2,000
1319/11 21:17JOZZ5168Full House5,000
1419/11 21:17CHETAHQQ88Full House1,000
1519/11 21:17TWOPAY88Four Of A Kind250,000
1619/11 21:17KIKO12Full House10,000
1719/11 21:17BRANDAZ69Full House2,000
1819/11 21:17JALAKJALFull House2,000
1919/11 21:17SANDRO06Full House5,000
2019/11 21:17JON_LENOONFull House2,000
2119/11 21:17JIPJASZREYFull House1,000
2219/11 21:17TOKEEEKFour Of A Kind50,000
2319/11 21:17BACKTOFull House1,000
2419/11 21:17HHHEEEEEEEFull House500
2519/11 21:17RETNAN3009Full House1,000
2619/11 21:17RAWUJP9Full House10,000
2719/11 21:17D1F5A75EFull House20,000
2819/11 21:17KETOPRAKEKFull House20,000
2919/11 21:17SAYANGSMPFull House2,000
3019/11 21:17AAKCAKIL19Full House1,000
3119/11 21:17LIMBAH04Full House1,000
3219/11 21:17MUSTANG_77Full House2,000
3319/11 21:17RODECO573Four Of A Kind50,000
3419/11 21:17GAM99ACEHFull House20,000
3519/11 21:17YAYA412Full House2,000
3619/11 21:17ZJ6D85SIBRFull House1,000
3719/11 21:17RAWING24Full House2,000
3819/11 21:17KFJFJFJFull House1,000
3919/11 21:17CARAMELLFull House5,000
4019/11 21:17JU4RARF10JFull House10,000
4119/11 21:17PBN019Full House20,000
4219/11 21:17FLOW38Full House1,000
4319/11 21:17YET22Full House2,000
4419/11 21:17GADINGDIKAFull House2,000
4519/11 21:17RIZKY711Full House5,000
4619/11 21:17EKMT94NHTUFull House1,000
4719/11 21:17EUFYI43OXXFull House10,000
4819/11 21:17OARH00GT9YFull House5,000
4919/11 21:1771KIDBOYFull House5,000
5019/11 21:17DIAN_89Full House2,000

Domino Multi Jackpot System

Ikutilah global jackpot yang tersedia di system kami, dengan system jackpot terbaru dan pertama di indonesia, anda dapat membeli jackpot dengan harga 100 rupiah saja dan menangkan hadiahnya hingga puluhan juta rupiah.

Jackpot bukanlah suatu keharusan untuk dibeli, namun kami memberikan suatu fitur tambahan untuk member tercinta dari www.poker555.net.

Terdapat tiga pilihan harga jackpot yang bisa anda beli yaitu :100,500 dan 1000 rupiah.

Hadiah dari Multi jackpot system www.poker555.net

  1. Murni Kecil x 50 harga jackpot yang anda beli.
      (contoh:anda membeli 1000 maka:1000 X 50 = 50.000)
  2. Murni Besar x 50 harga jackpot yang anda beli
      (contoh:anda membeli 1000 maka:1000 X 50 = 50.000)
  3. BALAK x 100 harga jackpot yang anda beli
      (contoh:anda membeli 1000 maka:1000 X 100 = 100.000)
  4. ENAM DEWA x 6666 harga jackpot yang anda beli
      (contoh:anda membeli 1000 maka:1000 X 6666 = 6.666.000)

Demikian adalah penjelasan dari Multi Jackpot www.poker555.net terima kasih dan selamat bermain salam hoki dari kami

Domino Jackpot Winner

TOP ENAM DEWA
No.TanggalNamaPriceWin
119/11 20:52FORTUNER74murni enam3,333,000
219/11 19:23REGASAmurni enam666,600
319/11 16:41CACDUS8IF3murni enam3,333,000
419/11 15:54RUDIADEWAmurni enam3,333,000
519/11 14:40BEXS27murni enam6,666,000
TOP BALAK
No.TanggalNamaPriceWin
119/11 21:15KATY99balak50,000
219/11 21:08SOK9SOK9balak100,000
319/11 21:05SETI608balak10,000
419/11 21:05OMANG12balak50,000
519/11 21:01FEI07balak100,000
LATEST JACKPOT
No.TanggalNamaPriceWin
119/11 21:17TUH19murni besar50,000
219/11 21:17INTIM123murni besar5,000
319/11 21:16X795V422IMmurni besar5,000
419/11 21:16LVYJDQYCBHmurni kecil50,000
519/11 21:15MRGELOmurni kecil50,000
619/11 21:15KATY99balak50,000
719/11 21:14QAXHBQVEKOmurni besar50,000
819/11 21:14PEYPAYmurni besar25,000
919/11 21:13COCOM4murni besar5,000
1019/11 21:12BAGASRESEmurni kecil25,000
1119/11 21:11DAY05murni besar50,000
1219/11 21:11KENOTINGKEmurni besar5,000
1319/11 21:11XIAOFENmurni kecil5,000
1419/11 21:08SOK9SOK9balak100,000
1519/11 21:08PIAN86X9murni kecil50,000
1619/11 21:07FUNNY1583murni besar25,000
1719/11 21:07PONIPUTIHmurni besar50,000
1819/11 21:07A603NGKURmurni besar5,000
1919/11 21:07YANTI19murni besar50,000
2019/11 21:07MASTERLAU1murni kecil5,000
2119/11 21:06IND72murni besar50,000
2219/11 21:06TMS1BW28AZmurni kecil5,000
2319/11 21:05ARGA2244murni kecil25,000
2419/11 21:05SETI608balak10,000
2519/11 21:05LAMBAT55murni besar5,000
2619/11 21:05OMANG12balak50,000
2719/11 21:05B33STmurni besar50,000
2819/11 21:04GIANT8murni besar50,000
2919/11 21:04KALONG_35murni besar50,000
3019/11 21:04OBLO214murni kecil25,000
3119/11 21:04BNGST10murni kecil5,000
3219/11 21:04CAPAMUSEmurni besar50,000
3319/11 21:03YANAPASHAmurni besar25,000
3419/11 21:03CLBIRAWANmurni kecil50,000
3519/11 21:02V1CT0RImurni kecil25,000
3619/11 21:01FEI07balak100,000
3719/11 21:01AADRBFFK96balak100,000
3819/11 21:01THOM420murni besar50,000
3919/11 21:01TAHIRUbalak50,000
4019/11 21:00SUEBKWmurni besar50,000
4119/11 21:00KULABOSmurni kecil5,000
4219/11 21:00IMRANZmurni besar50,000
4319/11 20:59BRUTEDmurni kecil25,000
4419/11 20:59F48A9EF5murni kecil5,000
4519/11 20:59SHINOBY92balak100,000
4619/11 20:58D3NBAGUS99murni besar50,000
4719/11 20:58OOY55murni kecil25,000
4819/11 20:57A9B35AC5murni kecil50,000
4919/11 20:57HF6BNJMDTCbalak100,000
5019/11 20:56ANGGIT93murni kecil50,000

Ceme Multi Jackpot System

Jackpot dilihat dari gabungan kartu pemain dengan kartu bandar. Bandar harus membeli jackpot sebanyak jumlah player yang sedang duduk. Sebagai contoh bila terdapat 3 pemain duduk bermain, dan bandar memutuskan untuk membeli jackpot Rp 1.000, maka pada periode tersebut bandar akan membeli jackpot sebanyak 3xRp1.000 = Rp3.000.

Jackpot bukanlah suatu keharusan untuk dibeli, namun kami memberikan suatu fitur tambahan untuk member tercinta dari www.poker555.net.

Terdapat tiga pilihan harga jackpot yang bisa anda beli yaitu :100,500 dan 1000 rupiah.

Hadiah dari Multi jackpot system www.poker555.net

  1. Murni Kecil x 50 harga jackpot yang anda beli.
      (contoh:anda membeli 1000 maka:1000 X 50 = 50.000)
  2. Murni Besar x 50 harga jackpot yang anda beli
      (contoh:anda membeli 1000 maka:1000 X 50 = 50.000)
  3. BALAK x 200 harga jackpot yang anda beli
      (contoh:anda membeli 1000 maka:1000 X 200 = 200.000)
  4. ENAM DEWA x 6666 harga jackpot yang anda beli
      (contoh:anda membeli 1000 maka:1000 X 6666 = 6.666.000)

Demikian adalah penjelasan dari Multi Jackpot www.poker555.net terima kasih dan selamat bermain salam hoki dari kami

Ceme Jackpot Winner

TOP ENAM DEWA
No.TanggalNamaPriceWin
119/11 20:59EDC64819murni enam3,333,000
219/11 20:59LAGIONOmurni enam3,333,000
319/11 20:40MHEYLANImurni enam666,600
419/11 20:40JUNIOR2501murni enam666,600
519/11 20:24MAYOR9murni enam666,600
TOP BALAK
No.TanggalNamaPriceWin
119/11 21:18BLISTERINGbalak200,000
219/11 21:18FERZA43balak20,000
319/11 21:17SLANKPISSbalak200,000
419/11 21:17EZIQbalak200,000
519/11 21:17TJOSSbalak20,000
LATEST JACKPOT
No.TanggalNamaPriceWin
119/11 21:18BONY123murni besar50,000
219/11 21:18SPR1AD1murni besar25,000
319/11 21:18BLISTERINGbalak200,000
419/11 21:18FERZA43balak20,000
519/11 21:17SLANKPISSbalak200,000
619/11 21:17EZIQbalak200,000
719/11 21:17XIEWIENmurni kecil5,000
819/11 21:17DJAROTNHmurni kecil25,000
919/11 21:17TYTYD2murni kecil25,000
1019/11 21:17TJOSSbalak20,000
1119/11 21:17RC7I9774HRmurni besar5,000
1219/11 21:17LONG_GARmurni besar50,000
1319/11 21:17HENGKII136murni besar50,000
1419/11 21:17OPBIJAL303murni besar50,000
1519/11 21:17MAZUN89murni besar50,000
1619/11 21:17SECRETT87balak100,000
1719/11 21:17MANTOS888murni besar50,000
1819/11 21:17FAUST01murni kecil5,000
1919/11 21:17DJOKER212balak20,000
2019/11 21:17ASMCPTmurni kecil25,000
2119/11 21:17D2S8LT66VTmurni kecil50,000
2219/11 21:16AMIIN3Xmurni besar50,000
2319/11 21:16AXZ461murni besar25,000
2419/11 21:16UWINDHILONmurni kecil5,000
2519/11 21:16PANSER32murni besar50,000
2619/11 21:16D2S8LT66VTmurni kecil50,000
2719/11 21:16ACHIE86murni kecil50,000
2819/11 21:16ANAKLANTAUmurni kecil50,000
2919/11 21:16BOS3Amurni kecil50,000
3019/11 21:16ICAANNmurni besar50,000
3119/11 21:16CRRPOQFNIZmurni besar50,000
3219/11 21:16AIJARANmurni kecil50,000
3319/11 21:16ARIFIN_31murni kecil50,000
3419/11 21:15AHIRA14murni kecil50,000
3519/11 21:15KIANU74murni kecil50,000
3619/11 21:15TRIYOKOmurni kecil50,000
3719/11 21:15TEHBOHAY6murni kecil5,000
3819/11 21:15SARKALI888murni kecil50,000
3919/11 21:15DONINGmurni besar5,000
4019/11 21:15ARCHER50balak200,000
4119/11 21:15DUWEPLRAKmurni kecil50,000
4219/11 21:15HENGKII136murni kecil50,000
4319/11 21:15DHIYAN97murni besar25,000
4419/11 21:15C7UZPVA3XImurni besar25,000
4519/11 21:15PANSER32murni kecil50,000
4619/11 21:15K0ROM90murni besar50,000
4719/11 21:15K0ROM90murni besar50,000
4819/11 21:15EMBUH007murni besar25,000
4919/11 21:14ADON088murni kecil50,000
5019/11 21:14RAFFA123AAmurni kecil25,000